Location: Dumpton Point
(51.3500°N, 1.4433°E)
Time: 13:24:14
(UTC+00:00)

A-11 Canister half - Pass Details

Date: 10 December 2023
Orbit: 1526 x 1682 km, 47.3° (Epoch: 29 February)

Event Time Altitude Azimuth Distance (km) Brightness Sun altitude
Rises 20:21:58 0° 264° (W) 4,933 12.4 -41.6°
Reaches altitude 10° 20:25:08 10° 262° (W) 3,946 11.7 -42.1°
Enters shadow 20:32:46 55° 241° (WSW) 1,956 9.5 -43.2°
